Погода в Зеленом

Украина / Днепропетровская область     47°55′42″N   34°15′44″E
темп.,
°C
ветер,
м/с
пор.,
м/с
влажн.,
%
обл.,
%
осадки,
мм/ч
давл.,
гПа
погр.,
м
3 марта, ср
ср323:00+2сз61282100 0.0 1021805
02:00+2сз61286100 0.1 1021703
05:00+2ссз7117979 0.1 1022906
08:00+2ссз7128150 0.1 1024721
11:00+5ссз710620 0.0 10251131
14:00+6ссз79510 0.0 10251423
17:00+5сз47600 0.0 1025453
20:00+1сз34770 0.0 102797
4 марта, чт
чт423:000зюз33870 0.0 102650
02:000юз35900 0.0 1025116
05:000юз48920 0.0 1023215
08:00+2юз610770 0.0 1022405
11:00+7юз710520 0.0 1019849
14:00+10юз812590 0.0 10161213
17:00+8юз8147064 0.0 1013775
20:00+5юз7168065 0.0 1013526
5 марта, пт
пт523:00+4юз7148851 0.0 1012452
02:00+3зюз5109561 0.0 1012284
05:00+2юз379789 0.0 1012172
08:00+4ююз459494 0.0 1012195
11:00+7ююз4582100 0.0 1011488
14:00+11юз6969100 0.0 10091127
17:00+10з4874100 0.0 1008167
20:00+6сз51186100 0.0 1010400
6 марта, сб
сб623:00+3с71093100 0.4 1012488
02:00+2ссз6984100 0.4 1015590
05:00−1с5108566 0.0 1017485
08:000с696665 0.0 1019738
11:00+2ссз6752100 0.0 10201404
14:00+3ссз6844100 0.0 10201730
17:00+1ссз71055100 0.1 10221339
20:00−1ссз495566 0.1 1024461
7 марта, вс
вс723:00−2сз37590 0.0 1026510
02:00−2зсз36610 0.0 1026425
05:00−3зсз37650 0.0 1026397
08:00−2з56490 0.0 10271065
11:00+1з68380 0.0 10251290
14:00+3зюз710370 0.0 10221422
17:00+1зюз611450 0.0 1020580
20:00−1зюз513550 0.0 1019390